TimeEDT,TemperatureF,Dew PointF,Humidity,Sea Level PressureIn,VisibilityMPH,Wind Direction,Wind SpeedMPH,Gust SpeedMPH,PrecipitationIn,Events,Conditions,WindDirDegrees,DateUTC
12:14 AM,46.0,44.4,94,30.02,10.0,South,6.9,-,N/A,,Clear,180,2012-10-22 04:14:00
12:34 AM,47.3,45.1,92,30.02,10.0,South,6.9,-,N/A,,Clear,170,2012-10-22 04:34:00
12:54 AM,47.3,45.0,92,30.02,10.0,South,5.8,-,N/A,,Clear,170,2012-10-22 04:54:00
1:14 AM,47.5,44.8,90,30.02,10.0,South,6.9,-,N/A,,Scattered Clouds,170,2012-10-22 05:14:00
1:54 AM,46.9,44.4,91,30.03,10.0,South,6.9,-,N/A,,Clear,190,2012-10-22 05:54:00
2:34 AM,46.6,44.6,93,30.03,10.0,South,6.9,-,N/A,,Clear,190,2012-10-22 06:34:00
2:54 AM,46.6,44.4,92,30.03,10.0,South,5.8,-,N/A,,Clear,180,2012-10-22 06:54:00
3:14 AM,46.0,43.7,92,30.03,10.0,South,5.8,-,N/A,,Clear,170,2012-10-22 07:14:00
3:34 AM,46.8,43.9,90,30.02,10.0,SSE,6.9,-,N/A,,Mostly Cloudy,160,2012-10-22 07:34:00
3:54 AM,46.8,43.2,87,30.02,10.0,South,9.2,-,N/A,,Mostly Cloudy,170,2012-10-22 07:54:00
4:14 AM,46.4,43.0,88,30.02,10.0,South,10.4,-,N/A,,Scattered Clouds,170,2012-10-22 08:14:00
4:54 AM,46.4,43.3,89,30.02,10.0,South,9.2,-,N/A,,Mostly Cloudy,170,2012-10-22 08:54:00
5:14 AM,46.4,43.2,88,30.01,10.0,South,9.2,-,N/A,,Scattered Clouds,170,2012-10-22 09:14:00
5:34 AM,46.4,42.4,86,30.00,10.0,South,8.1,-,N/A,,Scattered Clouds,180,2012-10-22 09:34:00
5:53 AM,46.9,42.8,86,30.00,10.0,South,8.1,-,N/A,,Clear,180,2012-10-22 09:53:00
6:14 AM,48.0,42.1,80,30.01,10.0,South,6.9,-,N/A,,Scattered Clouds,170,2012-10-22 10:14:00
6:34 AM,47.5,42.1,82,30.01,10.0,South,6.9,-,N/A,,Scattered Clouds,180,2012-10-22 10:34:00
7:14 AM,45.7,42.1,87,30.01,10.0,Calm,Calm,-,N/A,,Mostly Cloudy,0,2012-10-22 11:14:00
7:34 AM,46.0,43.0,89,30.01,10.0,ESE,3.5,-,N/A,,Overcast,120,2012-10-22 11:34:00
7:53 AM,45.7,43.2,91,30.01,10.0,SE,4.6,-,N/A,,Mostly Cloudy,140,2012-10-22 11:53:00
8:14 AM,45.7,43.3,92,30.01,10.0,SE,3.5,-,N/A,,Mostly Cloudy,140,2012-10-22 12:14:00
8:53 AM,47.5,43.0,84,30.01,10.0,SSE,5.8,-,N/A,,Overcast,160,2012-10-22 12:53:00
9:14 AM,48.0,43.7,85,30.02,10.0,SSE,3.5,-,N/A,,Scattered Clouds,150,2012-10-22 13:14:00
9:34 AM,47.8,43.7,86,30.02,10.0,Calm,Calm,-,N/A,,Clear,0,2012-10-22 13:34:00
9:53 AM,48.6,44.8,87,30.03,10.0,Calm,Calm,-,N/A,,Scattered Clouds,0,2012-10-22 13:53:00
10:14 AM,49.5,45.0,84,30.03,10.0,Calm,Calm,-,N/A,,Overcast,0,2012-10-22 14:14:00
10:34 AM,50.9,45.5,82,30.03,10.0,Calm,Calm,-,N/A,,Scattered Clouds,0,2012-10-22 14:34:00
10:53 AM,53.2,45.3,74,30.03,10.0,Calm,Calm,-,N/A,,Scattered Clouds,0,2012-10-22 14:53:00
11:14 AM,56.1,45.5,68,30.04,10.0,Calm,Calm,-,N/A,,Clear,0,2012-10-22 15:14:00
11:34 AM,52.3,42.4,69,30.04,10.0,Calm,Calm,-,N/A,,Clear,0,2012-10-22 15:34:00
11:53 AM,53.2,41.7,65,30.04,10.0,NE,3.5,-,N/A,,Clear,50,2012-10-22 15:53:00
12:14 PM,53.1,41.9,66,30.05,10.0,NE,4.6,-,N/A,,Scattered Clouds,50,2012-10-22 16:14:00
12:34 PM,53.1,41.7,65,30.05,10.0,ENE,3.5,-,N/A,,Overcast,60,2012-10-22 16:34:00
12:53 PM,53.4,41.9,65,30.04,10.0,ENE,4.6,-,N/A,,Scattered Clouds,70,2012-10-22 16:53:00
1:14 PM,54.0,42.1,64,30.03,10.0,ENE,5.8,-,N/A,,Scattered Clouds,60,2012-10-22 17:14:00
1:53 PM,54.1,41.9,63,30.02,10.0,ENE,4.6,-,N/A,,Overcast,70,2012-10-22 17:53:00
2:14 PM,53.6,42.6,66,30.02,10.0,East,3.5,-,N/A,,Overcast,90,2012-10-22 18:14:00
2:34 PM,54.3,42.6,65,30.02,10.0,Calm,Calm,-,N/A,,Overcast,0,2012-10-22 18:34:00
2:53 PM,54.9,43.0,64,30.01,10.0,Calm,Calm,-,N/A,,Overcast,0,2012-10-22 18:53:00
3:14 PM,53.8,42.3,65,30.01,10.0,Calm,Calm,-,N/A,,Overcast,0,2012-10-22 19:14:00
3:54 PM,54.5,43.0,65,30.00,10.0,East,5.8,-,N/A,,Overcast,100,2012-10-22 19:54:00
4:34 PM,54.5,42.8,65,30.01,10.0,East,5.8,-,N/A,,Overcast,100,2012-10-22 20:34:00
4:53 PM,52.5,43.0,70,30.01,10.0,East,6.9,-,N/A,,Overcast,90,2012-10-22 20:53:00
5:14 PM,51.4,44.8,78,30.01,10.0,East,10.4,-,N/A,,Overcast,90,2012-10-22 21:14:00
5:33 PM,51.8,44.8,77,30.01,10.0,East,9.2,-,N/A,,Overcast,90,2012-10-22 21:33:00
6:14 PM,51.6,46.0,81,30.01,10.0,East,11.5,-,N/A,,Overcast,90,2012-10-22 22:14:00
6:34 PM,50.9,47.3,87,30.01,10.0,East,12.7,-,N/A,,Overcast,80,2012-10-22 22:34:00
7:14 PM,52.7,45.5,76,30.01,10.0,East,11.5,17.3,N/A,,Scattered Clouds,90,2012-10-22 23:14:00
7:33 PM,52.3,46.6,81,30.02,10.0,East,12.7,18.4,N/A,,Scattered Clouds,80,2012-10-22 23:33:00
8:14 PM,50.7,47.7,89,30.02,10.0,East,10.4,17.3,N/A,,Mostly Cloudy,80,2012-10-23 00:14:00
8:33 PM,51.3,46.6,84,30.02,10.0,East,9.2,-,N/A,,Mostly Cloudy,80,2012-10-23 00:33:00
9:14 PM,51.4,46.4,83,30.02,10.0,East,10.4,-,N/A,,Mostly Cloudy,100,2012-10-23 01:14:00
9:54 PM,51.4,47.3,86,30.02,10.0,East,10.4,-,N/A,,Overcast,90,2012-10-23 01:54:00
10:14 PM,51.4,47.3,86,30.03,10.0,East,10.4,16.1,N/A,,Overcast,90,2012-10-23 02:14:00
10:33 PM,51.3,47.7,87,30.03,10.0,East,9.2,-,N/A,,Overcast,90,2012-10-23 02:33:00
11:33 PM,51.1,48.0,89,30.00,10.0,East,13.8,-,N/A,,Overcast,80,2012-10-23 03:33:00